Weather History for Wichita, KS

Change the Weather History Date:

Wednesday, July 25, 2012

  Actual Average Record
Temperature  
Mean Temperature 92 °F 81 °F  
Max Temperature 108 °F 93 °F 108 °F (2012)
Min Temperature 76 °F 70 °F 58 °F (1890)
Degree Days  
Heating Degree Days 0 0  
Month to date heating degree days 0 0  
Since 1 June heating degree days 10 6  
Since 1 July heating degree days 0 0  
Cooling Degree Days 27 16  
Month to date cooling degree days 568 395  
Year to date cooling degree days 1391 860  
Since 1 June cooling degree days 1030 724  
Growing Degree Days 44 (Base 50)    
Moisture  
Dew Point 60 °F    
Average Humidity 37    
Maximum Humidity 54    
Minimum Humidity 19    
Precipitation  
Precipitation 0.11 in 0.09 in 1.18 in (1944)
Month to date precipitation 0.22 2.75  
Year to date precipitation 17.74 19.81  
Snow  
Snow 0.00 in 0.00 in 0.00 in (2007)
Month to date snowfall 0.0 0.0  
Since 1 June snowfall 0.0 0.0  
Since 1 July snowfall 0.0 0.0  
Snow Depth 0.00 in    
Sea Level Pressure  
Sea Level Pressure 29.73 in    
Wind  
Wind Speed 16 mph (South)    
Max Wind Speed 30 mph    
Max Gust Speed 37 mph    
Visibility 10 miles    
Events      
T = Trace of Precipitation, MM = Missing Value Source: NWS Daily Summary

Daily Weather History Graph

Daily Weather History Graph

Search for Another Location

Airport:

Trip Planner

Search our weather history database for the weather conditions in past years. The results will help you decide how hot, cold, wet, or windy it might be!

Date:

Astronomy

Jul. 25, 2012 Rise Set
Actual Time 6:28 AM CDT 8:43 PM CDT
Civil Twilight 5:58 AM CDT 9:13 PM CDT
Nautical Twilight 5:22 AM CDT 9:49 PM CDT
Astronomical Twilight 4:42 AM CDT 10:29 PM CDT
Moon 1:24 PM CDT (7/25) No Moon Set
Length of Visible Light 15h 14m
Length of Day
14h 15m
Waxing Crescent, 42% of the Moon is Illuminated
Jul 25
Waxing Crescent
Jul 26
First Quarter
Aug 1
Full
Aug 9
Last Quarter
Aug 17
New

Hourly Weather History & Observations

Time (CDT) Temp. Heat Index Dew Point Humidity Pressure Visibility Wind Dir Wind Speed Gust Speed Precip Events Conditions
12:53 AM 88.0 °F 87.9 °F 61.0 °F 40% 29.80 in 10.0 mi South 16.1 mph - N/A   Clear
1:53 AM 86.0 °F 86.3 °F 62.1 °F 44% 29.80 in 10.0 mi South 16.1 mph - N/A   Clear
2:53 AM 84.9 °F 85.4 °F 62.1 °F 46% 29.79 in 10.0 mi South 15.0 mph - N/A   Clear
3:53 AM 82.9 °F 84.0 °F 63.0 °F 51% 29.78 in 10.0 mi South 13.8 mph 20.7 mph N/A   Clear
4:53 AM 82.0 °F 83.1 °F 63.0 °F 52% 29.78 in 10.0 mi South 12.7 mph - N/A   Clear
5:53 AM 81.0 °F 82.2 °F 63.0 °F 54% 29.78 in 10.0 mi South 11.5 mph - N/A   Partly Cloudy
6:53 AM 80.1 °F 81.5 °F 63.0 °F 56% 29.78 in 10.0 mi South 10.4 mph - N/A   Scattered Clouds
7:53 AM 84.0 °F 84.9 °F 63.0 °F 49% 29.78 in 10.0 mi South 15.0 mph - N/A   Scattered Clouds
8:53 AM 87.1 °F 87.8 °F 63.0 °F 44% 29.78 in 10.0 mi South 19.6 mph 27.6 mph N/A   Scattered Clouds
9:53 AM 91.0 °F 91.5 °F 62.1 °F 38% 29.77 in 10.0 mi SSW 15.0 mph 26.5 mph N/A   Scattered Clouds
10:53 AM 96.1 °F 96.9 °F 62.1 °F 32% 29.75 in 10.0 mi SSW 19.6 mph 26.5 mph N/A   Scattered Clouds
11:53 AM 99.0 °F 99.5 °F 61.0 °F 28% 29.74 in 10.0 mi SW 15.0 mph 23.0 mph N/A   Scattered Clouds
12:53 PM 102.0 °F 102.7 °F 60.1 °F 25% 29.73 in 10.0 mi South 16.1 mph 23.0 mph N/A   Scattered Clouds
1:53 PM 104.0 °F 104.0 °F 57.9 °F 22% 29.70 in 10.0 mi SSW 23.0 mph 28.8 mph N/A   Mostly Cloudy
2:53 PM 105.1 °F 104.4 °F 55.9 °F 20% 29.69 in 10.0 mi SSW 17.3 mph 27.6 mph N/A   Mostly Cloudy
3:53 PM 102.9 °F 101.9 °F 55.9 °F 21% 29.68 in 10.0 mi SSW 21.9 mph 29.9 mph N/A   Mostly Cloudy
4:53 PM 106.0 °F 105.8 °F 57.0 °F 20% 29.66 in 10.0 mi South 20.7 mph 31.1 mph N/A   Scattered Clouds
5:53 PM 102.9 °F 102.4 °F 57.0 °F 22% 29.64 in 10.0 mi South 21.9 mph 28.8 mph N/A   Scattered Clouds
6:53 PM 102.9 °F 101.9 °F 55.9 °F 21% 29.63 in 10.0 mi South 19.6 mph 27.6 mph N/A   Scattered Clouds
7:53 PM 100.9 °F 99.6 °F 55.0 °F 22% 29.62 in 10.0 mi South 16.1 mph - N/A   Scattered Clouds
8:53 PM 96.1 °F 95.2 °F 57.9 °F 28% 29.63 in 10.0 mi South 16.1 mph - N/A   Scattered Clouds
9:53 PM 95.0 °F 94.4 °F 59.0 °F 30% 29.66 in 10.0 mi South 13.8 mph - N/A   Mostly Cloudy
10:53 PM 93.0 °F 92.7 °F 60.1 °F 33% 29.68 in 10.0 mi South 12.7 mph 21.9 mph N/A   Mostly Cloudy
11:49 PM 86.0 °F 86.6 °F 62.6 °F 45% 29.80 in 10.0 mi North 19.6 mph 27.6 mph N/A   Overcast
11:53 PM 84.9 °F 86.1 °F 64.0 °F 49% 29.75 in 10.0 mi NNE 19.6 mph 27.6 mph N/A   Overcast